When you browse on this site, cookies collect data to enhance your experience and personalize the content and advertising you see.
Visit our Privacy Policy to learn more. By continuing to use the site, you agree to this use of cookies and data.
  • En España
  • Lista de países
  • Para 7 días
  • Temperatura del agua
  • Mapa Satelital
  • El tiempo en el mapa
  • Informadores
  • user-avatar
    Iniciar sesión

    Tiempo cada hora Akimovka

    Hoy, 24 Junio, Lunes

    Tiempo Temperatura Precipitaciones Viento Presión Humedad
    00:00 +17°C° 0.3 mm 2 mps 752 mmHg 84%
    01:00 +16°C° 0 mm 2 mps 752 mmHg 84%
    02:00 +16°C° 0 mm 2 mps 752 mmHg 84%
    03:00 +15°C° 0 mm 2 mps 752 mmHg 87%
    04:00 +15°C° 0 mm 2 mps 752 mmHg 87%
    05:00 +16°C° 0 mm 3 mps 752 mmHg 87%
    06:00 +16°C° 0 mm 3 mps 752 mmHg 87%
    07:00 +17°C° 0.1 mm 3 mps 753 mmHg 84%
    08:00 +18°C° 0.1 mm 3 mps 753 mmHg 81%
    09:00 +20°C° 0 mm 3 mps 753 mmHg 79%
    10:00 +21°C° 0 mm 3 mps 753 mmHg 72%
    11:00 +22°C° 0 mm 3 mps 753 mmHg 65%
    12:00 +24°C° 0 mm 2 mps 753 mmHg 59%
    13:00 +24°C° 0 mm 3 mps 753 mmHg 57%
    14:00 +24°C° 0 mm 3 mps 753 mmHg 55%
    15:00 +25°C° 0 mm 3 mps 753 mmHg 53%
    16:00 +25°C° 0 mm 3 mps 753 mmHg 56%
    17:00 +24°C° 0 mm 3 mps 753 mmHg 60%
    18:00 +24°C° 0 mm 2 mps 753 mmHg 63%
    19:00 +21°C° 0 mm 2 mps 754 mmHg 66%
    20:00 +20°C° 0 mm 2 mps 754 mmHg 70%
    21:00 +18°C° 0 mm 2 mps 755 mmHg 73%
    22:00 +17°C° 0 mm 2 mps 755 mmHg 71%
    23:00 +16°C° 0 mm 2 mps 755 mmHg 70%

    Mañana, 25 Junio, Martes

    Tiempo Temperatura Precipitaciones Viento Presión Humedad
    00:00 +15°C° 0 mm 2 mps 755 mmHg 69%
    01:00 +15°C° 0 mm 2 mps 755 mmHg 71%
    02:00 +14°C° 0 mm 2 mps 756 mmHg 74%
    03:00 +13°C° 0 mm 2 mps 756 mmHg 76%
    04:00 +14°C° 0 mm 2 mps 756 mmHg 77%
    05:00 +14°C° 0 mm 2 mps 756 mmHg 78%
    06:00 +14°C° 0 mm 2 mps 756 mmHg 79%
    07:00 +16°C° 0 mm 2 mps 756 mmHg 74%
    08:00 +17°C° 0 mm 3 mps 757 mmHg 70%
    09:00 +19°C° 0 mm 3 mps 757 mmHg 66%
    10:00 +20°C° 0 mm 3 mps 757 mmHg 61%
    11:00 +21°C° 0 mm 4 mps 757 mmHg 55%
    12:00 +21°C° 0 mm 4 mps 757 mmHg 50%
    13:00 +22°C° 0 mm 4 mps 757 mmHg 49%
    14:00 +22°C° 0 mm 4 mps 757 mmHg 49%
    15:00 +22°C° 0 mm 4 mps 757 mmHg 49%
    16:00 +22°C° 0 mm 4 mps 757 mmHg 54%
    17:00 +21°C° 0 mm 3 mps 757 mmHg 59%
    18:00 +21°C° 0 mm 3 mps 757 mmHg 64%
    19:00 +19°C° 0 mm 3 mps 757 mmHg 67%
    20:00 +17°C° 0 mm 2 mps 757 mmHg 69%
    21:00 +16°C° 0 mm 2 mps 757 mmHg 71%
    22:00 +15°C° 0 mm 2 mps 757 mmHg 72%
    23:00 +14°C° 0 mm 1 mps 757 mmHg 73%

    Pasado mañana, 26 Junio, Miércoles

    Tiempo Temperatura Precipitaciones Viento Presión Humedad
    00:00 +13°C° 0 mm 1 mps 757 mmHg 74%
    01:00 +13°C° 0 mm 1 mps 757 mmHg 74%
    02:00 +13°C° 0 mm 1 mps 757 mmHg 75%
    03:00 +12°C° 0 mm 1 mps 757 mmHg 75%
    04:00 +13°C° 0 mm 1 mps 757 mmHg 76%
    05:00 +14°C° 0 mm 2 mps 756 mmHg 77%
    06:00 +14°C° 0 mm 2 mps 756 mmHg 78%
    07:00 +16°C° 0 mm 2 mps 756 mmHg 75%
    08:00 +17°C° 0 mm 3 mps 756 mmHg 72%
    09:00 +19°C° 0 mm 3 mps 756 mmHg 69%
    10:00 +20°C° 0.2 mm 3 mps 755 mmHg 66%
    11:00 +21°C° 0.2 mm 3 mps 755 mmHg 62%
    12:00 +22°C° 0.2 mm 4 mps 754 mmHg 59%
    13:00 +21°C° 0.5 mm 3 mps 754 mmHg 62%
    14:00 +21°C° 0.5 mm 3 mps 754 mmHg 66%
    15:00 +21°C° 0.5 mm 2 mps 753 mmHg 69%
    16:00 +19°C° 0.9 mm 2 mps 753 mmHg 78%
    17:00 +17°C° 0.9 mm 2 mps 752 mmHg 86%
    18:00 +15°C° 0.9 mm 2 mps 752 mmHg 95%
    19:00 +15°C° 0.5 mm 2 mps 752 mmHg 95%
    20:00 +14°C° 0.5 mm 1 mps 751 mmHg 96%
    21:00 +14°C° 0.5 mm 1 mps 751 mmHg 96%
    22:00 +14°C° 0 mm 1 mps 751 mmHg 96%
    23:00 +13°C° 0 mm 1 mps 750 mmHg 96%

    27 Junio, Jueves

    Tiempo Temperatura Precipitaciones Viento Presión Humedad
    00:00 +13°C° 0 mm 2 mps 750 mmHg 96%
    01:00 +13°C° 0 mm 1 mps 749 mmHg 96%
    02:00 +12°C° 0 mm 1 mps 749 mmHg 95%
    03:00 +11°C° 0 mm 1 mps 749 mmHg 95%
    04:00 +12°C° 0 mm 1 mps 748 mmHg 94%
    05:00 +13°C° 0 mm 1 mps 748 mmHg 93%
    06:00 +13°C° 0 mm 1 mps 747 mmHg 92%
    07:00 +14°C° 0 mm 1 mps 747 mmHg 92%
    08:00 +14°C° 0 mm 2 mps 746 mmHg 91%
    09:00 +13°C° 0 mm 3 mps 745 mmHg 91%
    10:00 +13°C° 1 mm 4 mps 745 mmHg 92%
    11:00 +14°C° 1 mm 4 mps 744 mmHg 93%
    12:00 +14°C° 1 mm 5 mps 743 mmHg 95%
    13:00 +14°C° 4.3 mm 5 mps 742 mmHg 95%
    14:00 +13°C° 4.3 mm 6 mps 741 mmHg 96%
    15:00 +13°C° 4.3 mm 6 mps 740 mmHg 97%
    16:00 +14°C° 6.9 mm 6 mps 739 mmHg 97%
    17:00 +14°C° 6.9 mm 6 mps 738 mmHg 98%
    18:00 +15°C° 6.9 mm 6 mps 737 mmHg 98%
    19:00 +15°C° 6.4 mm 5 mps 736 mmHg 98%
    20:00 +16°C° 6.4 mm 5 mps 735 mmHg 98%
    21:00 +16°C° 6.4 mm 5 mps 735 mmHg 98%
    22:00 +16°C° 2.7 mm 5 mps 734 mmHg 97%
    23:00 +17°C° 2.7 mm 4 mps 733 mmHg 97%

    28 Junio, Viernes

    Tiempo Temperatura Precipitaciones Viento Presión Humedad
    00:00 +17°C° 2.7 mm 4 mps 732 mmHg 97%
    01:00 +17°C° 1 mm 4 mps 731 mmHg 97%
    02:00 +17°C° 1 mm 4 mps 730 mmHg 97%
    03:00 +15°C° 1 mm 5 mps 730 mmHg 97%
    04:00 +15°C° 0.1 mm 5 mps 729 mmHg 96%
    05:00 +15°C° 0.1 mm 5 mps 729 mmHg 95%
    06:00 +14°C° 0.1 mm 5 mps 729 mmHg 95%
    07:00 +14°C° 0 mm 5 mps 728 mmHg 94%
    08:00 +14°C° 0 mm 6 mps 728 mmHg 92%
    09:00 +14°C° 0 mm 6 mps 728 mmHg 91%
    10:00 +15°C° 0.1 mm 6 mps 728 mmHg 89%
    11:00 +15°C° 0.1 mm 6 mps 728 mmHg 87%
    12:00 +15°C° 0.1 mm 6 mps 728 mmHg 84%
    13:00 +15°C° 0.2 mm 6 mps 728 mmHg 85%
    14:00 +15°C° 0.2 mm 6 mps 727 mmHg 85%
    15:00 +15°C° 0.2 mm 6 mps 727 mmHg 85%
    16:00 +14°C° 0.4 mm 5 mps 727 mmHg 88%
    17:00 +13°C° 0.4 mm 4 mps 727 mmHg 91%
    18:00 +12°C° 0.4 mm 3 mps 727 mmHg 94%
    19:00 +12°C° 0.4 mm 3 mps 727 mmHg 95%
    20:00 +12°C° 0.4 mm 3 mps 727 mmHg 96%
    21:00 +12°C° 0.4 mm 2 mps 727 mmHg 98%
    22:00 +12°C° 0.5 mm 2 mps 727 mmHg 98%
    23:00 +11°C° 0.5 mm 3 mps 727 mmHg 98%

    29 Junio, Sábado

    Tiempo Temperatura Precipitaciones Viento Presión Humedad
    00:00 +11°C° 0.5 mm 3 mps 727 mmHg 98%
    01:00 +11°C° 0.5 mm 3 mps 727 mmHg 98%
    02:00 +12°C° 0.5 mm 3 mps 726 mmHg 98%
    03:00 +12°C° 0.5 mm 3 mps 726 mmHg 98%
    04:00 +12°C° 0.3 mm 3 mps 726 mmHg 98%
    05:00 +12°C° 0.3 mm 3 mps 726 mmHg 97%
    06:00 +12°C° 0.3 mm 3 mps 726 mmHg 97%
    07:00 +12°C° 0.3 mm 3 mps 726 mmHg 97%
    08:00 +12°C° 0.3 mm 3 mps 726 mmHg 96%
    09:00 +12°C° 0.3 mm 3 mps 726 mmHg 95%
    10:00 +13°C° 0.6 mm 3 mps 726 mmHg 94%
    11:00 +13°C° 0.6 mm 3 mps 727 mmHg 93%
    12:00 +13°C° 0.6 mm 3 mps 727 mmHg 92%
    13:00 +13°C° 0.5 mm 3 mps 727 mmHg 92%
    14:00 +13°C° 0.5 mm 3 mps 728 mmHg 92%
    15:00 +13°C° 0.5 mm 3 mps 728 mmHg 92%
    16:00 +13°C° 0.5 mm 3 mps 728 mmHg 93%
    17:00 +14°C° 0.5 mm 2 mps 729 mmHg 94%
    18:00 +14°C° 0.5 mm 2 mps 729 mmHg 95%
    19:00 +14°C° 0.4 mm 2 mps 729 mmHg 95%
    20:00 +13°C° 0.4 mm 2 mps 729 mmHg 96%
    21:00 +13°C° 0.4 mm 1 mps 729 mmHg 97%
    22:00 +13°C° 0.3 mm 1 mps 730 mmHg 97%
    23:00 +13°C° 0.3 mm 1 mps 730 mmHg 97%
    Mostrar más